Вернуться в каталог

STARLINK-6134

АктивенСвязьVLEO
NORAD 57110·PAYLOAD·🇺🇸 United States

Запущен Jun 23, 2023 с Cape Canaveral Space Force Station

Loading…

Ближайшие Пролёты (ближайшие 24 часа)

TLE

СвежийSource: CelesTrak SupGP

Эпоха: Sep 14, 2026, 20:51 UTC

1 57110C 23090K   26257.86923611 -.00016529  00000+0 -59886-3 0  2576
2 57110  43.0005 293.1236 0001400 263.5842 165.6608 15.27576948    16

Отслеживайте STARLINK-6134 в реальном времени с AllMySat

Download on the App Store